Погода в Бряндином

Россия / Ульяновская область     54°22′58″N   49°22′18″E
В апреле 2022 года жителям России запретили посещать сайт meteo.paraplan.net по решению Генеральной прокуратуры. Аудитория сайта уменьшилась в 10 раз. Владельцы сайта не видят смысла в поддержке погодного сервера в таких условиях. Сайт будет закрыт в октябре.
темп.,
°C
ветер,
м/с
пор.,
м/с
влажн.,
%
обл.,
%
осадки,
мм/ч
давл.,
гПа
погр.,
м
25 сентября, вс
вс2501:00+11юз2574100 0.0 1011220
04:00+10ююз3473100 0.0 1011144
07:00+10ююв1171100 0.0 101029
10:00+12вюв2262100 0.0 1009442
13:00+14с1153100 0.0 10071217
16:00+13ссз1253100 0.2 10061194
19:00+10в2271100 0.0 100527
22:00+9юз247447 0.0 100591
26 сентября, пн
пн2601:00+9юз2586100 0.1 1005140
04:00+8зюз388876 0.3 1006281
07:00+9юз368398 0.0 1007458
10:00+10юз3571100 0.1 10081074
13:00+9ююз3685100 0.4 1009466
16:00+10ююз357768 0.8 1010632
19:00+9ююз258252 0.3 1011283
22:00+7юз249131 0.3 101285
27 сентября, вт
вт2701:00+7юз258994 0.1 1013112
04:00+8юз369169 0.3 1013255
07:00+7зюз379294 0.4 1014244
10:00+10з468059 1.4 1015557
13:00+12з456018 0.2 10161332
16:00+12зсз445612 0.3 10161081
19:00+9з227491 0.0 101628
22:00+8з22805 0.0 101714
28 сентября, ср
ср2801:00+7зсз11885 0.0 101710
04:00+6ссв11905 0.0 101710
07:00+5св229428 0.0 101730
10:00+10всв34725 0.0 1017458
13:00+13вюв335357 0.0 10171440
16:00+11всв5763100 0.0 1016621
19:00+9всв61173100 0.0 1017436
22:00+7в51177100 0.0 1017442
29 сентября, чт
чт2901:00+7в61173100 0.0 1017478
04:00+5всв61172100 0.0 1017447
07:00+4всв61374100 0.1 1017469
10:00+5всв61065100 0.1 1017574
13:00+7всв5853100 0.0 1017762
16:00+8всв6949100 0.0 1017876
19:00+7всв61159100 0.0 1018666
22:00+5всв6127798 0.0 1019548